Back to catalog

STARLINK-36480

AliveCommunicationsVLEO
NORAD 67336·PAYLOAD·🇺🇸 United States

Launched Jan 9, 2026 from Cape Canaveral Space Force Station

Loading…

Next Passes (next 24 hours)

TLE

FreshSource: CelesTrak SupGP

Epoch: Sep 14, 2026, 15:37 UTC

1 67336C 26003C   26257.65118056 -.00036247  00000+0 -13131-2 0  2571
2 67336  43.0024 240.0661 0001376 260.8544  17.1906 15.27589389    17

Track STARLINK-36480 in real time with AllMySat

Download on the App Store